Weather in Novocheremshansk

Russia / Ulyanovsk Oblast     54°21′26″N   50°09′42″E
temp.,
°C
wind,
m/s
gust,
m/s
humid.,
%
clouds,
%
prec.,
mm/h
press.,
hPa
HPBL,
m
19 september, sun
sun1901:00+2nw34765 0.0 102371
04:00+2nw35885 0.0 102490
07:00+1nw368898 0.0 1025142
10:00+6nnw456193 0.0 1025767
13:00+10nw344317 0.0 10251263
16:00+11nnw344092 0.0 10241327
19:00+6n3357100 0.0 102538
22:00+5nne226181 0.0 102513
20 september, mon
mon2001:00+4ne116555 0.0 102610
04:00+2ne227310 0.0 102623
07:00+2ene347664 0.0 102675
10:00+8e345298 0.0 1027554
13:00+11e4441100 0.0 10261161
16:00+12e4438100 0.0 10251223
19:00+10ene3646100 0.0 1025171
22:00+8e4952100 0.0 1025257
21 september, tue
tue2101:00+7e4950100 0.0 1025308
04:00+8ese51051100 0.0 1024332
07:00+8ese41050100 0.0 1024387
10:00+8ese51050100 0.0 1023463
13:00+8e61152100 0.0 1023479
16:00+9e61258100 0.0 1021492
19:00+9ese51153100 0.0 1021466
22:00+9e61152100 0.0 1019360
22 september, wed
wed2201:00+9e61251100 0.0 1018337
04:00+9ese51257100 0.0 1017306
07:00+9ese61257100 0.0 1016341
10:00+13se61242100 0.0 1016538
13:00+13se71453100 0.3 1016637
16:00+16se71239100 0.3 1016906
19:00+14se71440100 0.0 1017540
22:00+12se61270100 0.3 1019524
23 september, thu
thu2301:00+11se6137197 0.0 1020475
04:00+12ese61357100 0.0 1019441
07:00+11se61452100 0.0 1020458
10:00+9se61184100 1.1 1021421
13:00+11sse41091100 1.3 1022305
16:00+12s3886100 2.4 1023448
19:00+12ese4969100 0.4 1023251
22:00+11sse61368100 0.4 1024599